Tracking 19219 objects as of 19-Jul-2018
HD Live streaming from Space Station
objects crossing your sky now

FENGYUN 1C DEB

Track FENGYUN 1C DEB now!
10-day predictions


NORAD ID: 30700
Int'l Code: 1999-025ARJ
Perigee: 762.4 km
Apogee: 891.5 km
Inclination: 98.9 °
Period: 101.3 minutes
Semi major axis: 7197 km
RCS: 0.0102 m2 (small)
Launch date: May 10, 1999
Source: People's Republic of China (PRC)
Launch site: Taiyaun Space Center, China (TSC)

Note: This is SATELLITE DEBRIS
aabbcc
Your satellite tracking list
Your tracking list is empty




NASA's NSSDC Master Catalog

Two Line Element Set (TLE):
1 30700U 99025ARJ 18200.03682939  .00000025  00000-0  30534-4 0  9992
2 30700  98.8603 225.2060 0089662  44.6453 316.1899 14.21650975591855
Source of the keplerian elements: AFSPC